Regional Weather Roundup
Issued by NWS State College, PA

Home | Current Version | Previous Version | Text Only | Print | Product List | Glossary Off
Versions: 1 2 3 4 5 6 7 8 9 10 11 12 13 14 15 16 17 18 19 20 21 22 23 24 25 26 27 28 29 30 31 32 33 34 35 36 37 38 39 40 41 42 43 44 45 46 47 48 49 50

000
ASUS41 KCTP 271603
RWRCTP

REGIONAL WEATHER ROUNDUP
NATIONAL WEATHER SERVICE STATE COLLEGE PA
1200 PM EDT FRI MAR 27 2015

Note: "fair" indicates few or no clouds below 12,000 feet with no
significant weather and/or obstructions to visibility.

* = STATION THAT DOES NOT REPORT PRECIPITATION /E.G. RAIN...SNOW...ETC/
    THUNDER OR FOG.

PAZ002>004-007>009-013>016-020>023-029>032-271700-
WESTERN PENNSYLVANIA

CITY           SKY/WX    TMP DP  RH WIND       PRES   REMARKS
ERIE           FLURRIES  27  22  81 W9        29.92S
MEADVILLE      FLURRIES  28  20  71 W10       29.88R
FRANKLIN*      CLOUDY    30  19  64 W7        29.88R
NEW CASTLE     FLURRIES  30  24  78 NW12      29.92R
BEAVER COUNTY  CLOUDY    30  25  80 NW7       29.89R
BUTLER*        CLOUDY    34  25  69 NW10      29.89R
PITTSBURGH INT FLURRIES  32  27  81 NW10      29.88R
PITTSBURGH     CLOUDY    35  20  54 W8        29.86R
INDIANA*       CLOUDY    36  27  69 NW8       29.87S
LATROBE        CLOUDY    37  28  70 NW7       29.87R
WASHINGTON CO* CLOUDY    36  23  60 NW7       29.90R
$$

PAZ004>006-010>012-017>019-024>028-033>037-041-042-045-046-049>053-271700-
CENTRAL PENNSYLVANIA

CITY           SKY/WX    TMP DP  RH WIND       PRES   REMARKS
BRADFORD       LGT SNOW  29  23  78 NW14      29.78R
DUBOIS         CLOUDY    34  25  69 W10       29.80R
CLEARFIELD     CLOUDY    36  22  56 NW10      29.82R
JOHNSTOWN      LGT SNOW  31  26  82 NW9       29.78R
ALTOONA        CLOUDY    38  22  52 N10       29.81S
STATE COLLEGE  NOT AVBL
WILLIAMSPORT   CLOUDY    42  20  41 NW10      29.81R
SELINSGROVE    CLOUDY    42  25  50 N9        29.83R
FT INDIANTOWN  CLOUDY    42  22  45 NW7G17    29.80S
CAPITAL CITY   CLOUDY    43  26  51 N10       29.80F
HARRISBURG     CLOUDY    42  26  53 NE9       29.79F
YORK           CLOUDY    43  29  57 N7        29.79F
$$

PAZ038>040-043-044-047-048-054-055-060>062-067>071-271700-
EASTERN PENNSYLVANIA

CITY           SKY/WX    TMP DP  RH WIND       PRES   REMARKS
SCRANTON       CLOUDY    39  27  62 N12       29.80R
MOUNT POCONO   CLOUDY    34  26  72 NW8       29.72S
ALLENTOWN      CLOUDY    42  30  62 N10       29.77F
QUAKERTOWN*    CLOUDY    41  32  70 N7        29.78S
READING        CLOUDY    42  26  53 NW12      29.80R
LANCASTER      CLOUDY    42  27  55 N14       29.79F
COATESVILLE    CLOUDY    41  30  65 N10       29.79S
POTTSTOWN      CLOUDY    42  30  62 N12       29.79F
BLUE BELL      CLOUDY    43  34  70 N6        29.76F
DOYLESTOWN     CLOUDY    42  34  73 NW8       29.75F
WILLOW GROVE   NOT AVBL
NORTH PHILA    CLOUDY    45  33  63 N9        29.77F
PHILADELPHIA   CLOUDY    44  34  67 N10       29.77F
$$


USA.gov is the U.S. government's official web portal to all federal, state and local government web resources and services.